Find Hangtian Qinghua 1

NORAD ID: 26385 Int'l Des: 2000-033 Owner: TSHUA Country: CN operational
LEOCIRCULARRETROGRADESSO

Current View

Loading 3D Globe...

About Hangtian Qinghua 1

Description loading...

Upcoming Passes

Passes for default location (London). Set your location on the main map for personalized predictions.

Altitude History

Loading altitude history...

Two-Line Element Set

1 26385U 00033B 26149.86517444 .00000751 00000-0 13834-3 0 9996
2 26385 97.8796 123.9712 0015029 154.8088 205.3853 14.68228564384195
Epoch: May 29, 2026 • Age: 17 hours

Current Status

Altitude 684.4 km
Velocity 7.51 km/s
Sub-Earth Point -50.85°S, 165.71°W
Launch Date Jun 28, 2000
Age 25.9 years
Type other

Technical Details

Classification Payload
Mass 50.00 kg
Dry Mass 50.00 kg
Total Mass 50.00 kg
Length 0.60 m
Diameter 0.40 m
Span 6.00 m
Shape Box + Ant
Manufacturer SSTL
Bus Type UoSAT MS-70
Phase Status In Orbit
Owner/State TSHUA/CN

Most Searched